COSMOS 2251 DEB, 33992

Orbit data source: Space-Track

COSMOS 2251 DEB, 33992 is space debris in LEO originally from a launch on Wed, 16 Jun 1993 UTC launched from the Plesetsk Missile And Space Complex (PKMTR). The debris from Iridium 33, an American commercial communications satellite, has been tracked extensively since its accidental collision with the defunct Russian satellite Cosmos 2251 in 2009. This event, occurring at high speed in low Earth orbit (LEO), generated thousands of pieces of space debris, significantly increasing the risk of further collisions. The Iridium 33 debris cloud has impacted space traffic management and orbital debris mitigation strategies, making it a subject of ongoing study in space situational awareness.

Loading next visibility...
Identifier
33992, 1993-036GB
Orbit
LEO
Country
Flag of CISCIS
Related business
Manufacturer
Unknown
Mission
Spacecraft
Bus & Motor
Unknown
Mass
Unknown
Launch date (UTC)
1993-06-16 (33 years ago)
Launch vehicle
Unknown
Launch site
Plesetsk Missile And Space Complex (PKMTR)
Object type
Payload
Rocket body
Debris
Shape & HBR
Unknown shape, 0.2 m
Radar Cross Section
Small (<0.1 m²)

Expand to show TLE details & history
Last TLE update: 15 hours ago

TLE from 15 hours ago
0 COSMOS 2251 DEB
1 33992U 93036GB  26035.32196691  .00003849  00000-0  68082-3 0  9991
2 33992  74.0209 234.3406 0053563 338.2187 194.3685 14.66791949899105
Epoch: 2026-02-04T07:43Z
TLE epoch observation values (Epoch: 2026-02-04T07:43:37.941Z)
Latitude
7.20315°
Longitude
161.87941°
Altitude
709.925 km
Speed
7.482 km/s
True Right ascension
03h 29m 06s
True Declination
7° 09' 37"
Sunlit
Object was in daylight at epoch
Visualization orbit readout
Latitude
Unknown
Longitude
Unknown
Altitude
Unknown
Speed
Unknown
Apparent Right ascension
Unknown
Apparent Declination
Unknown
Sunlit
N/A
Visualization observer readout
Local Sidereal Time
00:57:34
Azimuth
Unknown
Elevation
Unknown
Doppler factor
Unknown
Orbital elements
Apogee altitude
706.665 km
Perigee altitude
631.173 km
Semi-major axis
7,047.056 km
Eccentricity
0.00536
Inclination
74.0209°
RAAN
234.3406°
Arg. of periapsis
338.2187°
True anomaly
194.21717°
Mean anomaly
194.3685°
Eccentric anomaly
194.29274°
Mean motion
3.66886 °/min
Orbital period
98.12 mins
BSTAR
0.00068082
Loading maneuver chart data...
Computing Atmospheric mass density...

Documentation

Showing up to 5 results
|